Location: *
(43.0409°N, 0.1694°E)
Time: 21:28:55
(UTC+00:00)

PSLV R/B - Pass Details

Date: 03 October 2023
Orbit: 584 x 614 km, 98.0° (Epoch: 05 December)

Event Time Altitude Azimuth Distance (km) Brightness Sun altitude
Rises 05:18:10 0° 15° (NNE) 2,820 7.2 -8.2°
Maximum altitude 05:24:28 67° 101° (ESE) 635 3.9 -7.0°
Drops below altitude 10° 05:28:34 10° 185° (S) 1,901 6.0 -6.3°
Sets 05:30:44 0° 188° (S) 2,799 6.8 -5.9°
